Regional Weather Roundup
Issued by NWS Grand Forks, ND

Home | Current Version | Previous Version | Graphics & Text | Print | Product List | Glossary On
Versions: 1 2 3 4 5 6 7 8 9 10 11 12 13 14 15 16 17 18 19 20 21 22 23 24 25 26 27 28 29 30 31 32 33 34 35 36 37 38 39 40 41 42 43 44 45 46 47 48 49 50
000
ASUS43 KFGF 240410
RWRFGF
PRAIRIE TO PINES  WEATHER ROUNDUP
NATIONAL WEATHER SERVICE EASTERN NORTH DAKOTA/GRAND FORKS ND
1100 PM CDT MON OCT 23 2017

 **SATELLITE DATA USED TO AUGMENT SKY COVER AT AUTOMATED STATIONS**
 *****  WEATHER ACROSS EASTERN NORTH DAKOTA  *****

CITY           SKY/WX    TMP DP  RH WIND       PRES   REMARKS
GRAND FORKS    FAIR      37  30  75 N16       30.16R
GRAND FRKS AFB FAIR      36  28  74 N14G22    30.17R
DEVILS LAKE    FAIR      32  27  81 NW10      30.22R WCI  24
FARGO          CLOUDY    39  30  70 N17       30.13R
WAHPETON ARPT  NOT AVBL
$$

 ***** WEATHER ACROSS CENTRAL AND WESTERN NORTH DAKOTA  *****

CITY           SKY/WX    TMP DP  RH WIND       PRES   REMARKS
BISMARCK       FAIR      45  32  60 NW15G22   30.31R
MINOT          FAIR      40  30  67 W12       30.31R
JAMESTOWN      FAIR      40  29  64 NW20G32   30.18R
MINOT AFB      FAIR      36  29  74 NW13      30.29R
GARRISON         N/A     37  30  75 NW12      30.32R
WILLISTON      FAIR      39  28  64 W12       30.41R
DICKINSON      FAIR      33  25  72 W10       30.37R WCI  25
HETTINGER      FAIR      38  25  59 NW13      30.39R
$$

 *****  OTHER AIRPORT OBSERVATIONS IN OUR AREA  *****

CITY           SKY/WX    TMP DP  RH WIND       PRES   REMARKS
WALHALLA       FAIR     N/A N/A N/A NW13      30.21R
GRAFTON AIRPOR FAIR      36  30  80 NW16      30.19S
VALLEY CITY AR MIX PCPN  37  30  75 N15       30.18R
CANDO          FAIR      32  25  74 NW9       30.25R WCI  24
CAVALIER APRT  FAIR      36  30  80 NW15      30.19R
GWINNER          N/A     39  32  75 NW10      30.13R
SHEYENNE NWR     N/A     38  28  66 N9        29.95S
ROLLA          FAIR      37  25  60 NW17G24   30.24R
 ***** THE ABOVE OBSERVATIONS ARE NON NWS ARE NOT QUALITY
       CONTROLLED AND MAY MIS-REPORT RAIN FOR SNOW...
$$

  *****  WEATHER ACROSS NORTHERN MINNESOTA  *****

CITY           SKY/WX    TMP DP  RH WIND       PRES   REMARKS
FLAG ISLAND    CLOUDY    43  30  61 N24G31    30.05R
WARROAD        CLOUDY    39  30  70 N21G30    30.07R
ROSEAU         CLOUDY    43  32  65 N15G26    30.08S
HALLOCK        FAIR      37  30  75 N17       30.15S
THF RVR FALLS  CLOUDY    38  28  67 NW21      30.11R
BAUDETTE       CLOUDY    41  31  67 N20G35    30.01S
WASKISH        CLOUDY    39  34  81 NW16      30.00S
CROOKSTON      FAIR      37  28  70 N18       30.14R
STEPHEN NDAWN    N/A     37  28  70 N12         N/A
GREENBUSH NDAW   N/A     36  28  75 NW12        N/A
$$
  *****  WEATHER ACROSS CENTRAL AND WEST MINNESOTA  *****

CITY           SKY/WX    TMP DP  RH WIND       PRES   REMARKS
FOSSTON        CLOUDY    37  27  65 NW22      30.07R
BEMIDJI        CLOUDY    39  30  70 N13G22    30.00S
PARK RAPIDS    CLOUDY    40  28  62 N18G33    29.98S
ELBOW LAKE     FAIR      38  30  73 NW17G28   30.04S
WADENA         MOCLDY    37  27  65 NW12      29.99S
DETROIT LAKES  CLOUDY    37  30  75 NW18G25   30.05S
MOORHEAD       CLOUDY    37  28  70 N18       30.12R
FERGUS FALLS   FAIR      36  28  75 N14G22    30.08R
MORRIS MN      FAIR      39  28  65 N22G31    30.03R
STAPLES        FAIR      37  27  65 NW12G17   29.97S
$$
  *****  WEATHER ELSEWHERE ACROSS MINNESOTA  *****

CITY           SKY/WX    TMP DP  RH WIND       PRES   REMARKS
DULUTH         CLOUDY    42  35  76 NW17G32   29.77F
INTRNTL FALLS  LGT RAIN  41  33  73 N15G23    29.95R
ELY            DRIZZLE   37  36  93 NW10G21   29.83S
CLOQUET        FAIR      43  30  61 NW16G30   29.80F
WHEATON        FAIR      39  28  65 NW20G26   30.10S
BRAINERD       CLOUDY    42  28  57 NW14      29.93S
HIBBING        LGT RAIN  40  31  70 N23G33    29.86S
ALEXANDRIA     FAIR      39  28  64 N23G40    30.00R
SAINT CLOUD    FAIR      41  30  65 NW13G23   29.91S
MINNEAPOLIS    CLOUDY    47  29  49 NW20G29   29.85F
$$

  *****  WEATHER ACROSS SOUTH DAKOTA  *****

CITY           SKY/WX    TMP DP  RH WIND       PRES   REMARKS
SIOUX FALLS    FAIR      48  37  65 NW25G35   30.05R
BROOKINGS      MOCLDY    45  34  65 N31G40    30.04R
WATERTOWN      FAIR      42  33  70 N25G36    30.07R
HURON          MOCLDY    46  34  62 N20G30    30.16R
SISSETON         N/A     41  31  67 N20       30.09R
ABERDEEN       FAIR      43  33  68 NW17G24   30.17S
MITCHELL       FAIR      49  33  54 N26G39    30.16R
PIERRE         FAIR      47  29  49 NW17      30.27R
MOBRIDGE       FAIR      47  32  56 NW15      30.26R
RAPID CITY     FAIR      47  20  34 NW24G31   30.42R
$$

  *****  SOME WEATHER IN NEARBY STATES *****

CITY           SKY/WX    TMP DP  RH WIND       PRES   REMARKS
GLASGOW MT     FAIR      38  23  55 CALM      30.48R
GREAT FALLS MT FAIR      39  25  57 SW13      30.53F
CHEYENNE WY    FAIR      38  17  42 N12       30.55R
SCOTTSBLUFF NE FAIR      45  17  32 NW12      30.50R
OMAHA NE       CLOUDY    53  33  46 NW22G29   30.04F
DES MOINES IA  MOCLDY    51  31  46 NW17G28   29.91F
DAVENPORT IA   CLOUDY    49  41  74 W12G23    29.77F
CHICAGO IL     LGT RAIN  53  45  74 W16G23    29.60F
EAU CLAIRE WI  NOT AVBL
LA CROSSE WI   CLOUDY    50  41  71 NW20G28   29.72S
$$

  *****  SOME NATIONAL WEATHER *****

CITY           SKY/WX    TMP DP  RH WIND       PRES   REMARKS
LA GUARDIA NY  CLOUDY    70  65  84 SE18G29   29.98F
RALEIGH NC     LGT RAIN  62  62 100 SW6       29.82F
ATLANTA GA     FAIR      55  52  89 W10       29.97R
NEW ORLEANS LA FAIR      57  57 100 CALM      30.07R
OKLAHOMA CITY  FAIR      52  36  54 NW8       30.27R
ALBUQUERQUE NM FAIR      62  27  26 E14       30.39R
SALT LAKE CITY FAIR      52  38  58 N3        30.64R
LOS ANGELES CA FAIR      78  50  37 NE3       30.01S
BOISE ID       FAIR      49  36  61 W3        30.66S
SEATTLE WA     FAIR      55  45  68 N7        30.63F
$$

*** WEATHER ACROSS MANITOBA...SASKATCHEWAN AND ONTARIO ***
                ***ONTARIO***

CITY           SKY/WX    TMP DP  RH WIND       PRES   REMARKS
GERALDTON      CLOUDY    41  39  93 N3        29.71F
THUNDER BAY    CLOUDY    48  43  81 NE5       29.69R
SIOUX LOOKOUT  CLOUDY    36  32  87 N8G22     29.95R
TORONTO        LGT RAIN  61  57  88 S10G22    29.58F
BIG TROUT LK   CLOUDY    30  25  80 N9G18     30.04R WCI  22
PICKLE LAKE    NOT AVBL
DRYDEN         MOCLDY    36  32  87 N12G21    29.97R
KENORA         CLOUDY    37  27  65 N15G25    30.04R
$$
                *** MANITOBA***

CITY           SKY/WX    TMP DP  RH WIND       PRES   REMARKS
BRANDON        PTCLDY    32  23  69 W5        30.25R
DAUPHIN        CLEAR     27  21  80 W7        30.27S WCI  19
ISLAND LAKE    PTCLDY    32  27  80 N20G26    30.13R WCI  20
PILOT MOUND      N/A     30  27  86 NW9         N/A  WCI  22
THE PAS        NOT AVBL
THOMPSON       CLOUDY    32  27  80 NW6       30.18R
WINNIPEG       PTCLDY    34  28  80 NW13      30.19R WCI  25
LYNN LAKE      MOCLDY    28  27  93 NW6       30.18R WCI  22
CHURCHILL      PTCLDY    25  21  86 NW20G30   30.04R WCI  11
GILLAM         CLOUDY    27  21  80 NW16G22   30.14R WCI  14
$$
                ***SASKATCHEWAN***

CITY           SKY/WX    TMP DP  RH WIND       PRES   REMARKS
ESTEVAN        PTCLDY    34  27  75 W9        30.35R
KINDERSLEY     CLEAR     32  23  69 SW8       30.38F WCI  25
LLOYDMINSTER   CLEAR     36  27  69 SW8       30.32F
PRINCE ALBERT  CLEAR     27  25  93 VRB2      30.33S
REGINA         CLEAR     30  27  86 NW7       30.37R WCI  23
YORKTON        CLEAR     32  28  86 NW7       30.30R
N. BATTLEFORD    N/A     30  23  74 W5        30.36
LA RONGE       PTCLDY    27  27 100 VRB2      30.27F
SASKATOON      CLEAR     30  27  86 SW7       30.36S WCI  23
SWIFT CURRENT  CLEAR     32  21  64 SW13      30.42R WCI  22
$$
NOTE: THESE ARE AUTOMATED STATIONS WITH LIMITED QUALITY CONTROL
      "FAIR" INDICATES FEW OR NO CLOUDS BELOW 12,000 FEET WITH NO
      SIGNIFICANT WEATHER AND/OR OBSTRUCTIONS TO VISIBILITY.
      SKY/WX - SKY CONDITION AND SIGNIFICANT WEATHER.
      TMP - AIR TEMPERATURE.    DP   - DEWPOINT TEMPERATURE.
      RH  - RELATIVE HUMIDITY.  PRES - PRESSURE.
      HX  - HEAT INDEX.         WCI  - WIND CHILL INDEX.
$



USA.gov is the U.S. government's official web portal to all federal, state and local government web resources and services.